Regional Weather Roundup
Issued by NWS Newport/Morehead, NC

Current Version | Previous Version | Graphics & Text | Print | Product List | Glossary On
Versions: 1 2 3 4 5 6 7 8 9 10 11 12 13 14 15 16 17 18 19 20 21 22 23 24 25 26 27 28 29 30 31 32 33 34 35 36 37 38 39 40 41 42 43 44 45 46 47 48 49 50
000 ASUS42 KMHX 291925 RWRMHX WEATHER ROUNDUP FOR EASTERN NORTH CAROLINA NATIONAL WEATHER SERVICE NEWPORT/MOREHEAD CITY NC 300 PM EDT SAT APR 29 2017 NOTE: "FAIR" INDICATES FEW OR NO CLOUDS BELOW 12,000 FEET WITH NO SIGNIFICANT WEATHER AND/OR OBSTRUCTIONS TO VISIBILITY NCZ015>017-031-032-045>047-102-103-292000- NORTH COAST CITY SKY/WX TMP DP RH WIND PRES REMARKS EDENTON CLOUDY 88 71 58 SW7 30.16S ELIZABETH CITY LGT RAIN 86 74 67 SW14 30.14F KITTY HAWK PTCLDY 87 68 51 CALM 30.14F MANTEO MOSUNNY 86 70 58 W9 30.16S $$ NCZ045>047-081-094-103-104-292000- CENTRAL COAST CITY SKY/WX TMP DP RH WIND PRES REMARKS FRISCO SUNNY 81 73 76 SW12G20 30.21S HAZE $$ NCZ095-097-098-100-101-292000- SOUTHERN COAST CITY SKY/WX TMP DP RH WIND PRES REMARKS BEAUFORT SUNNY 80 74 81 SW17G26 30.21S CEDAR ISLAND NOT AVBL JACKSONVILLE SUNNY 85 74 69 S10 30.18S PINEY ISLAND CLEAR N/A N/A N/A SW15G26 30.19F WILMINGTON SUNNY 86 70 58 S12G17 30.20F $$ NCZ011>013-027>030-043-044-078>080-089-090>093-098-292000- COASTAL PLAIN CITY SKY/WX TMP DP RH WIND PRES REMARKS AHOSKIE N/A 85 72 65 S5 30.14F CLINTON MOSUNNY 87 71 58 SW6 30.17F ELIZABETHTOWN MOSUNNY 88 67 49 S7 30.18S GOLDSBORO SUNNY 88 70 56 SW9 30.15F GREENVILLE MOSUNNY 88 70 55 W10G16 30.17F HAVELOCK MOSUNNY 84 72 67 S14G22 30.20F KENANSVILLE MOSUNNY 88 70 55 SW9 30.17F KINSTON MOSUNNY 90 68 48 SW10G17 30.17F NEW BERN MOSUNNY 87 72 60 SW9 30.18F RICHLANDS MOSUNNY 88 69 53 SW12 30.18F ROCKY MOUNT PTSUNNY 87 71 58 SW8 30.16F WASHINGTON MOSUNNY 87 71 59 SW8 30.16S WHITEVILLE PTSUNNY 87 71 59 SE8 30.18S $$ AMZ130-135-150-152-154-156-158-170-250-252-270-ANZ085-086-088-633-658-670-292000- MARINE OBSERVATIONS STATION/POSITION TIME TEMP WIND PRES WAVE SWELL AIR SEA DIR/SP/G HT/PER HT/PER (UTC) (F) (DEG/KT/KT) (MB) (FT/S) (FT/S) CHESAPEAKE LIGHT NOT AVBL 64 E VA BEACH 1850 62 58 200/ 14/ 14 1021.2 3/ 5 2/ 8 DUCK 1900 83 56 240/ 9/ 12 1020.4 2 E DUCK 1900 61 N/A 2/ 8 OREGON INLET 1900 76 78 190/ 19/ 24 1021.6 13E OREGON INLT 1848 64 N/A 3/ 5 2/10 HATTERAS CG 1900 77 73 210/ 13/ 16 1022.6 DIAMOND BUOY 1850 77 76 220/ 16/ 19 1023.0 4/ 8 2/ 8 CAPE LOOKOUT 1900 77 200/ 11/ 15 1022.8 BEAUFORT LAB 1900 76 73 210/ 14/ 19 1022.2 30 SE NEW RVR IN 1908 74 210/ 10/ 14 1023.6 30 SE NEW RVR IN 1913 73 N/A 3/ 6 27 SE WRIGHTSVLE 1908 75 74 190/ 10/ 14 1023.4 5 SE WRIGHTSVLE 1908 74 72 180/ 8/ 12 1023.3 225 S CAPE HAT 1850 75 76 160/ 10/ 12 1025.4 3/ 5 3/ 5 41 SE CHARLESTON 1910 76 76 170/ 8/ 10 1023.4 $$

USA.gov is the U.S. government's official web portal to all federal, state and local government web resources and services.